AVA1133 SKAR-SKBQ

Flight info

Callsign AVA1133
Flight time 0h 58m
Altitude 23000
Route PEI1F PEI W3 RNG/N0447F350 UW26 MRN/N0447F360 UW3 VOVLU DCT LOLUD LOLUD1A
Aircraft A319/M-SDE3FGHIRWY/LB1

Departure

Time 2026-04-26 19:11
Airport El Eden Airport (SKAR)

Arrival

Time 2026-04-26 20:10
Airport Ernesto Cortissoz International Airport (SKBQ)
Time Latitude Longitude Altitude Speed Heading
2026-04-26 18:51 4.45283 -75.76755 3972 ft 0 kts 283°
2026-04-26 19:02 4.45283 -75.76754 3971 ft 1 kts 283°
2026-04-26 19:02 4.45277 -75.76733 3966 ft 3 kts 283°
2026-04-26 19:02 4.45271 -75.76710 3969 ft 3 kts 283°
2026-04-26 19:02 4.45273 -75.76711 3968 ft 3 kts 309°
2026-04-26 19:03 4.45295 -75.76704 3967 ft 3 kts 21°
2026-04-26 19:03 4.45316 -75.76700 3970 ft 0 kts 191°
2026-04-26 19:04 4.45316 -75.76699 3970 ft 0 kts 191°
2026-04-26 19:07 4.45313 -75.76700 3970 ft 2 kts 191°
2026-04-26 19:07 4.45304 -75.76702 3969 ft 0 kts 191°
2026-04-26 19:08 4.45295 -75.76704 3967 ft 5 kts 191°
2026-04-26 19:08 4.45233 -75.76696 3964 ft 14 kts 131°
2026-04-26 19:08 4.45119 -75.76648 3960 ft 25 kts 194°
2026-04-26 19:09 4.44912 -75.76696 3962 ft 35 kts 193°
2026-04-26 19:09 4.44661 -75.76755 3965 ft 36 kts 193°
2026-04-26 19:09 4.44408 -75.76820 3963 ft 36 kts 194°
2026-04-26 19:09 4.44168 -75.76876 3961 ft 30 kts 192°
2026-04-26 19:10 4.43986 -75.76898 3961 ft 16 kts 224°
2026-04-26 19:10 4.44011 -75.76909 3961 ft 6 kts
2026-04-26 19:10 4.44057 -75.76903 3961 ft 0 kts 12°
2026-04-26 19:10 4.44215 -75.76869 3962 ft 57 kts 12°
2026-04-26 19:11 4.44809 -75.76722 3963 ft 118 kts 13°
2026-04-26 19:11 4.45778 -75.76489 3983 ft 166 kts 13°
2026-04-26 19:11 4.46935 -75.76215 4506 ft 170 kts 12°
2026-04-26 19:11 4.48089 -75.75987 5181 ft 168 kts 11°
2026-04-26 19:12 4.49235 -75.75773 5798 ft 171 kts 11°
2026-04-26 19:12 4.50464 -75.75540 6076 ft 191 kts 11°
2026-04-26 19:12 4.51822 -75.75279 6292 ft 212 kts 11°
2026-04-26 19:12 4.53345 -75.75018 6516 ft 233 kts
2026-04-26 19:13 4.54996 -75.75345 6779 ft 256 kts 340°
2026-04-26 19:13 4.56749 -75.75970 7192 ft 278 kts 340°
2026-04-26 19:13 4.58598 -75.76639 7968 ft 286 kts 340°
2026-04-26 19:13 4.60491 -75.77322 8502 ft 292 kts 340°
2026-04-26 19:14 4.62412 -75.78010 9134 ft 294 kts 340°
2026-04-26 19:14 4.64345 -75.78699 10010 ft 296 kts 340°
2026-04-26 19:14 4.66354 -75.79413 10374 ft 318 kts 340°
2026-04-26 19:14 4.67762 -75.79912 10592 ft 330 kts 340°
2026-04-26 19:15 4.70672 -75.80943 11394 ft 339 kts 340°
2026-04-26 19:15 4.72908 -75.81739 12095 ft 343 kts 340°
2026-04-26 19:15 4.75176 -75.82527 12787 ft 347 kts 343°
2026-04-26 19:15 4.77566 -75.82951 13461 ft 352 kts 356°
2026-04-26 19:16 4.80022 -75.82822 14096 ft 356 kts
2026-04-26 19:16 4.82411 -75.82143 14703 ft 359 kts 19°
2026-04-26 19:16 4.84777 -75.81301 15303 ft 362 kts 19°
2026-04-26 19:16 4.87165 -75.80459 15897 ft 365 kts 19°
2026-04-26 19:17 4.89579 -75.79614 16480 ft 369 kts 18°
2026-04-26 19:17 4.91983 -75.78775 17053 ft 372 kts 18°
2026-04-26 19:17 4.94440 -75.77918 17634 ft 376 kts 18°
2026-04-26 19:17 4.96922 -75.77054 18230 ft 379 kts 18°
2026-04-26 19:18 4.99423 -75.76185 18762 ft 382 kts 18°
2026-04-26 19:18 5.01948 -75.75306 19289 ft 385 kts 18°
2026-04-26 19:18 5.04489 -75.74421 19810 ft 388 kts 19°
2026-04-26 19:18 5.07046 -75.73529 20329 ft 390 kts 19°
2026-04-26 19:19 5.09621 -75.72631 20856 ft 393 kts 19°
2026-04-26 19:19 5.12178 -75.71736 21339 ft 396 kts 19°
2026-04-26 19:19 5.14783 -75.70822 21828 ft 398 kts 19°
2026-04-26 19:19 5.17406 -75.69902 22302 ft 401 kts 19°
2026-04-26 19:20 5.20051 -75.68978 22765 ft 404 kts 19°
2026-04-26 19:20 5.21812 -75.68365 23073 ft 406 kts 19°
2026-04-26 19:20 5.25399 -75.67119 23674 ft 409 kts 19°
2026-04-26 19:20 5.28102 -75.66181 24028 ft 412 kts 20°
2026-04-26 19:21 5.30821 -75.65234 24367 ft 415 kts 20°
2026-04-26 19:21 5.33520 -75.64294 24704 ft 418 kts 20°
2026-04-26 19:21 5.36280 -75.63330 25080 ft 421 kts 20°
2026-04-26 19:21 5.39056 -75.62359 25430 ft 424 kts 20°
2026-04-26 19:22 5.41851 -75.61384 25795 ft 427 kts 20°
2026-04-26 19:22 5.44665 -75.60407 26155 ft 429 kts 20°
2026-04-26 19:22 5.47499 -75.59425 26500 ft 432 kts 20°
2026-04-26 19:22 5.50351 -75.58439 26863 ft 435 kts 20°
2026-04-26 19:23 5.53220 -75.57445 27210 ft 437 kts 20°
2026-04-26 19:23 5.56104 -75.56441 27551 ft 441 kts 20°
2026-04-26 19:23 5.58970 -75.55441 27883 ft 443 kts 20°
2026-04-26 19:23 5.61891 -75.54421 28203 ft 446 kts 20°
2026-04-26 19:24 5.64830 -75.53396 28531 ft 449 kts 20°
2026-04-26 19:24 5.67788 -75.52369 28881 ft 451 kts 20°
2026-04-26 19:24 5.73754 -75.50295 29554 ft 456 kts 20°
2026-04-26 19:25 5.76765 -75.49246 29903 ft 459 kts 20°
2026-04-26 19:25 5.78769 -75.48548 30100 ft 461 kts 20°
2026-04-26 19:25 5.82838 -75.47128 30505 ft 465 kts 20°
2026-04-26 19:25 5.85856 -75.46078 30821 ft 467 kts 20°
2026-04-26 19:26 5.88934 -75.45010 31128 ft 469 kts 20°
2026-04-26 19:26 5.92026 -75.43936 31459 ft 471 kts 20°
2026-04-26 19:26 5.95135 -75.42854 31768 ft 474 kts 20°
2026-04-26 19:26 5.98238 -75.41723 32102 ft 474 kts 24°
2026-04-26 19:27 6.01217 -75.40314 32534 ft 473 kts 27°
2026-04-26 19:27 6.04179 -75.38883 32972 ft 472 kts 27°
2026-04-26 19:27 6.07140 -75.37452 33416 ft 471 kts 27°
2026-04-26 19:27 6.10053 -75.36044 33857 ft 471 kts 27°
2026-04-26 19:28 6.13001 -75.34622 34296 ft 470 kts 27°
2026-04-26 19:28 6.15962 -75.33238 34681 ft 469 kts 22°
2026-04-26 19:28 6.19073 -75.32238 35047 ft 469 kts 13°
2026-04-26 19:28 6.22287 -75.31674 35405 ft 468 kts
2026-04-26 19:29 6.25502 -75.31190 35769 ft 467 kts
2026-04-26 19:29 6.28717 -75.30705 36073 ft 468 kts
2026-04-26 19:29 6.35114 -75.29733 35976 ft 461 kts
2026-04-26 19:30 6.41404 -75.28770 35975 ft 459 kts
2026-04-26 19:30 6.46695 -75.27959 35975 ft 459 kts
2026-04-26 19:31 6.54036 -75.26835 35978 ft 459 kts
2026-04-26 19:31 6.60357 -75.25873 35981 ft 460 kts
2026-04-26 19:32 6.66643 -75.24917 35979 ft 460 kts
2026-04-26 19:32 6.72972 -75.23952 35972 ft 460 kts
2026-04-26 19:33 6.79303 -75.22982 35965 ft 460 kts
2026-04-26 19:33 6.85637 -75.22014 35964 ft 460 kts
2026-04-26 19:34 6.91970 -75.21048 35928 ft 461 kts
2026-04-26 19:34 6.98265 -75.20091 35924 ft 461 kts
2026-04-26 19:35 7.04602 -75.19122 35930 ft 461 kts
2026-04-26 19:35 7.10941 -75.18158 35909 ft 461 kts
2026-04-26 19:36 7.16208 -75.17358 35909 ft 461 kts
2026-04-26 19:36 7.23573 -75.16248 35910 ft 460 kts
2026-04-26 19:37 7.29908 -75.15294 35908 ft 461 kts
2026-04-26 19:37 7.36291 -75.14322 35890 ft 461 kts
2026-04-26 19:38 7.42583 -75.13361 35888 ft 461 kts
2026-04-26 19:38 7.48926 -75.12403 35870 ft 461 kts
2026-04-26 19:39 7.55266 -75.11445 35866 ft 461 kts
2026-04-26 19:39 7.61566 -75.10491 35868 ft 461 kts
2026-04-26 19:40 7.67905 -75.09533 35860 ft 461 kts
2026-04-26 19:40 7.74244 -75.08568 35859 ft 461 kts
2026-04-26 19:41 7.80585 -75.07589 35847 ft 461 kts
2026-04-26 19:41 7.85858 -75.06768 35852 ft 461 kts
2026-04-26 19:42 7.93231 -75.05629 35847 ft 461 kts
2026-04-26 19:42 7.99568 -75.04661 35851 ft 460 kts
2026-04-26 19:43 8.05896 -75.03689 35850 ft 460 kts
2026-04-26 19:43 8.12220 -75.02710 35845 ft 460 kts
2026-04-26 19:44 8.18508 -75.01737 35839 ft 460 kts
2026-04-26 19:44 8.24844 -75.00760 35841 ft 461 kts
2026-04-26 19:45 8.31182 -74.99780 35847 ft 461 kts
2026-04-26 19:45 8.37526 -74.98800 35843 ft 461 kts
2026-04-26 19:46 8.43865 -74.97824 35844 ft 461 kts
2026-04-26 19:46 8.50169 -74.96847 35837 ft 461 kts
2026-04-26 19:47 8.55487 -74.96028 35840 ft 462 kts
2026-04-26 19:47 8.62880 -74.94893 35840 ft 462 kts
2026-04-26 19:48 8.69237 -74.93911 35844 ft 462 kts
2026-04-26 19:48 8.75593 -74.92927 35840 ft 462 kts
2026-04-26 19:49 8.81906 -74.91948 35846 ft 462 kts
2026-04-26 19:49 8.88271 -74.90958 35844 ft 463 kts
2026-04-26 19:50 8.94644 -74.89967 35694 ft 464 kts
2026-04-26 19:50 8.97839 -74.89475 35461 ft 464 kts
2026-04-26 19:50 9.01025 -74.88983 35182 ft 462 kts
2026-04-26 19:51 9.04201 -74.88492 34684 ft 462 kts
2026-04-26 19:51 9.07383 -74.88001 34185 ft 462 kts
2026-04-26 19:51 9.10522 -74.87516 33661 ft 462 kts
2026-04-26 19:51 9.13697 -74.87027 33135 ft 461 kts
2026-04-26 19:52 9.16862 -74.86538 32623 ft 459 kts
2026-04-26 19:52 9.20010 -74.86050 32108 ft 457 kts
2026-04-26 19:52 9.23149 -74.85565 31585 ft 455 kts
2026-04-26 19:52 9.26276 -74.85081 31074 ft 454 kts
2026-04-26 19:53 9.29404 -74.84721 30571 ft 452 kts
2026-04-26 19:53 9.32544 -74.84722 30094 ft 450 kts
2026-04-26 19:53 9.35666 -74.84746 29566 ft 448 kts
2026-04-26 19:53 9.38764 -74.84776 29108 ft 443 kts 360°
2026-04-26 19:54 9.41830 -74.84808 28648 ft 438 kts 360°
2026-04-26 19:54 9.44867 -74.84838 28207 ft 434 kts 360°
2026-04-26 19:54 9.47873 -74.84866 27766 ft 430 kts 360°
2026-04-26 19:54 9.50801 -74.85075 27347 ft 427 kts 350°
2026-04-26 19:55 9.53697 -74.85655 26918 ft 423 kts 348°
2026-04-26 19:55 9.56575 -74.86246 26496 ft 420 kts 348°
2026-04-26 19:55 9.59430 -74.86824 26077 ft 417 kts 348°
2026-04-26 19:55 9.62269 -74.87397 25655 ft 415 kts 348°
2026-04-26 19:56 9.65093 -74.87966 25210 ft 413 kts 348°
2026-04-26 19:56 9.67913 -74.88535 24773 ft 412 kts 348°
2026-04-26 19:56 9.70718 -74.89105 24315 ft 411 kts 348°
2026-04-26 19:56 9.73520 -74.89676 23856 ft 410 kts 348°
2026-04-26 19:57 9.76316 -74.90246 23374 ft 409 kts 348°
2026-04-26 19:57 9.79091 -74.90810 22931 ft 405 kts 348°
2026-04-26 19:57 9.81815 -74.91365 22454 ft 402 kts 348°
2026-04-26 19:57 9.84550 -74.91922 21930 ft 400 kts 348°
2026-04-26 19:58 9.87261 -74.92475 21441 ft 397 kts 348°
2026-04-26 19:58 9.89955 -74.93021 20994 ft 393 kts 348°
2026-04-26 19:58 9.92630 -74.93563 20462 ft 391 kts 348°
2026-04-26 19:58 9.95290 -74.94097 19989 ft 388 kts 349°
2026-04-26 19:59 9.97968 -74.94281 19507 ft 385 kts
2026-04-26 19:59 10.00636 -74.94158 19033 ft 382 kts
2026-04-26 19:59 10.03286 -74.94035 18554 ft 380 kts
2026-04-26 19:59 10.05920 -74.93914 18071 ft 378 kts
2026-04-26 20:00 10.08505 -74.93795 17557 ft 375 kts
2026-04-26 20:00 10.11089 -74.93676 17203 ft 368 kts
2026-04-26 20:00 10.13624 -74.93558 16770 ft 363 kts
2026-04-26 20:00 10.16134 -74.93442 16315 ft 359 kts
2026-04-26 20:01 10.18622 -74.93326 15860 ft 356 kts
2026-04-26 20:01 10.21089 -74.93213 15407 ft 354 kts
2026-04-26 20:01 10.23543 -74.93102 14958 ft 352 kts
2026-04-26 20:01 10.25979 -74.92992 14510 ft 350 kts
2026-04-26 20:02 10.28404 -74.92880 14065 ft 348 kts
2026-04-26 20:02 10.30816 -74.92770 13619 ft 346 kts
2026-04-26 20:02 10.33213 -74.92660 13146 ft 343 kts
2026-04-26 20:02 10.34788 -74.92588 12854 ft 341 kts
2026-04-26 20:03 10.37905 -74.92445 12281 ft 336 kts
2026-04-26 20:03 10.40232 -74.92340 11852 ft 333 kts
2026-04-26 20:03 10.42539 -74.92236 11518 ft 328 kts
2026-04-26 20:03 10.44772 -74.92137 11381 ft 316 kts
2026-04-26 20:04 10.46952 -74.92040 11042 ft 312 kts
2026-04-26 20:04 10.49173 -74.91940 10173 ft 327 kts
2026-04-26 20:04 10.51496 -74.91833 9162 ft 341 kts
2026-04-26 20:04 10.53916 -74.91720 8029 ft 355 kts
2026-04-26 20:05 10.56427 -74.91604 6819 ft 367 kts
2026-04-26 20:05 10.58973 -74.91487 5808 ft 372 kts
2026-04-26 20:05 10.61518 -74.91370 5346 ft 358 kts
2026-04-26 20:05 10.63941 -74.91260 5157 ft 338 kts
2026-04-26 20:06 10.66227 -74.91154 5022 ft 320 kts
2026-04-26 20:06 10.68385 -74.91054 5012 ft 300 kts
2026-04-26 20:06 10.70411 -74.90963 5021 ft 283 kts
2026-04-26 20:06 10.72325 -74.90878 5007 ft 268 kts
2026-04-26 20:07 10.74105 -74.90596 4999 ft 254 kts 24°
2026-04-26 20:07 10.75502 -74.89596 5005 ft 239 kts 40°
2026-04-26 20:07 10.76740 -74.88520 4813 ft 235 kts 41°
2026-04-26 20:07 10.77984 -74.87418 4431 ft 239 kts 40°
2026-04-26 20:08 10.79270 -74.86276 3769 ft 253 kts 40°
2026-04-26 20:08 10.80672 -74.85097 3000 ft 271 kts 36°
2026-04-26 20:08 10.82193 -74.83882 2108 ft 284 kts 38°
2026-04-26 20:08 10.83710 -74.82596 1508 ft 277 kts 39°
2026-04-26 20:09 10.85237 -74.81281 756 ft 281 kts 39°
2026-04-26 20:09 10.86752 -74.80001 577 ft 262 kts 38°
2026-04-26 20:09 10.87707 -74.79194 240 ft 257 kts 39°
2026-04-26 20:09 10.88979 -74.78085 82 ft 180 kts 39°
2026-04-26 20:10 10.89714 -74.77456 68 ft 96 kts 40°
2026-04-26 20:10 10.89944 -74.77242 63 ft 29 kts 63°
2026-04-26 20:10 10.89853 -74.77123 63 ft 27 kts 193°
2026-04-26 20:10 10.89714 -74.77226 62 ft 24 kts 218°
2026-04-26 20:11 10.89576 -74.77312 65 ft 22 kts 215°
2026-04-26 20:11 10.89461 -74.77403 66 ft 20 kts 223°
2026-04-26 20:11 10.89367 -74.77486 67 ft 16 kts 219°
2026-04-26 20:12 10.89203 -74.77490 74 ft 11 kts 166°
2026-04-26 20:12 10.89129 -74.77493 69 ft 12 kts 201°
2026-04-26 20:12 10.89049 -74.77552 74 ft 15 kts 220°
2026-04-26 20:12 10.88961 -74.77634 76 ft 19 kts 225°
2026-04-26 20:13 10.88879 -74.77656 84 ft 7 kts 129°
2026-04-26 20:13 10.88858 -74.77638 81 ft 3 kts 120°
2026-04-26 20:13 10.88850 -74.77628 81 ft 0 kts 129°